Погода в Нижней Омре

Россия / Республика Коми     62°45′17″N   55°49′45″E
В апреле 2022 года жителям России запретили посещать сайт meteo.paraplan.net по решению Генеральной прокуратуры. Аудитория сайта уменьшилась в 10 раз. Владельцы сайта не видят смысла в поддержке погодного сервера в таких условиях. Сайт будет закрыт в октябре.
темп.,
°C
ветер,
м/с
пор.,
м/с
влажн.,
%
обл.,
%
осадки,
мм/ч
давл.,
гПа
погр.,
м
25 сентября, вс
вс2500:00+2в514765 0.0 1022600
03:00+1в5147851 0.0 1023525
06:000в514805 0.0 1023569
09:00+3в612685 0.0 1023661
12:00+6в58555 0.0 1022846
15:00+6в510584 0.0 1022865
18:00+2в512714 0.0 1023703
21:00+1в615725 0.0 1022666
26 сентября, пн
пн2600:000в515690 0.0 1022748
03:00−1в515722 0.0 1022684
06:00−1в615725 0.0 1022701
09:00+2вюв611565 0.0 1023786
12:00+4вюв584512 0.0 10231038
15:00+4в47505 0.0 10221008
18:00−1в29735 0.0 1023180
21:00−1в31170100 0.0 1024386
27 сентября, вт
вт2700:00−2в2779100 0.0 1025187
03:00−2в2676100 0.0 1025178
06:00−1в2673100 0.0 1025205
09:00+2вюв2455100 0.0 1025572
12:00+4в224877 0.0 1025922
15:00+4всв22485 0.0 10251073
18:00−1всв11705 0.0 102610
21:00−2в22755 0.0 102725
28 сентября, ср
ср2800:00−3в28785 0.0 1029196
03:00−3в28855 0.0 1030230
06:00−3в28825 0.0 1031275
09:00+1вюв35575 0.0 1032721
12:00+3вюв23465 0.0 10321014
15:00+3в224714 0.0 1031918
18:00−2всв116852 0.0 103210
21:00−2св117120 0.0 103310
29 сентября, чт
чт2900:00−3всв11740 0.0 103410
03:00−3в11775 0.0 103511
06:00−3вюв23755 0.0 103572
09:00+2вюв35535 0.0 1035561
12:00+4вюв34455 0.0 1035963
15:00+4вюв24516 0.0 1035935
18:00−2вюв22775 0.0 103640
21:00−3юв25835 0.0 103798